This is the latest recevied weather packets stored in our database for station/object OE6ATD-13. If no packets are shown the sender has not sent any weather packets the latest 10 day(s).
| Time | Temp. | Humidity | Pressure | Rain* | Wind** | Luminosity | Snow |
|---|---|---|---|---|---|---|---|
| 1777826728 | 25° C | 31% | 1015 hPa | 0 mm | - | 153 W/m² | - |
| 1777826125 | 25° C | 31% | 1015 hPa | 0 mm | - | 177 W/m² | - |
| 1777825520 | 25° C | 30% | 1015.1 hPa | 0 mm | - | 206 W/m² | - |
| 1777824916 | 25.56° C | 30% | 1015 hPa | 0 mm | - | 221 W/m² | - |
| 1777824327 | 25.56° C | 30% | 1015 hPa | 0 mm | - | 228 W/m² | - |
| 1777823723 | 25.56° C | 30% | 1015.1 hPa | 0 mm | - | 227 W/m² | - |
| 1777823118 | 25.56° C | 30% | 1015.1 hPa | 0 mm | - | 222 W/m² | - |
| 1777822529 | 26.11° C | 30% | 1015.2 hPa | 0 mm | - | 218 W/m² | - |
| 1777821925 | 26.67° C | 30% | 1015.2 hPa | 0 mm | - | 218 W/m² | - |
| 1777821320 | 26.11° C | 30% | 1015.2 hPa | 0 mm | - | 226 W/m² | - |
| 1777820716 | 26.11° C | 30% | 1015.3 hPa | 0 mm | - | 245 W/m² | - |
| 1777820127 | 26.67° C | 30% | 1015.4 hPa | 0 mm | - | 274 W/m² | - |
| 1777819530 | 26.11° C | 30% | 1015.6 hPa | 0 mm | - | 309 W/m² | - |
| 1777818925 | 26.11° C | 30% | 1015.7 hPa | 0 mm | - | 348 W/m² | - |
| 1777818321 | 26.11° C | 30% | 1015.7 hPa | 0 mm | - | 393 W/m² | - |
| 1777817717 | 26.67° C | 30% | 1015.7 hPa | 0 mm | - | 433 W/m² | - |
| 1777817129 | 26.11° C | 30% | 1015.9 hPa | 0 mm | - | 469 W/m² | - |
| 1777816524 | 26.11° C | 30% | 1015.9 hPa | 0 mm | - | 501 W/m² | - |
| 1777815920 | 26.67° C | 30% | 1016 hPa | 0 mm | - | 535 W/m² | - |
| 1777815316 | 26.67° C | 30% | 1016.1 hPa | 0 mm | - | 563 W/m² | - |
| 1777814726 | 26.11° C | 30% | 1016.3 hPa | 0 mm | - | 589 W/m² | - |
| 1777814122 | 25.56° C | 29% | 1016.4 hPa | 0 mm | - | 616 W/m² | - |
| 1777813519 | 26.11° C | 30% | 1016.4 hPa | 0 mm | - | 647 W/m² | - |
| 1777812929 | 26.11° C | 30% | 1016.6 hPa | 0 mm | - | 672 W/m² | - |
| 1777812325 | 25.56° C | 30% | 1016.6 hPa | 0 mm | - | 697 W/m² | - |
* Rain latest hour (hover to see other rain measurements)
** Current wind speed in m/s (hover to see current wind gust speed)